Location: ??????
(41.3794°N, 22.5014°E)
Time: 22:29:54
(UTC+00:00)

Cosmos 1805 Rocket - Pass Details

Date: 30 November 2020
Orbit: 605 x 631 km, 82.5° (Epoch: 18 January)

Event Time Altitude Azimuth Distance (km) Brightness Sun altitude
Rises 15:37:07 0° 348° (NNW) 2,927 6.9 -6.8°
Reaches altitude 10° 15:39:23 10° 345° (NNW) 2,012 6.1 -7.2°
Maximum altitude 15:43:47 63° 266° (W) 701 4.2 -8.0°
Drops below altitude 10° 15:48:08 10° 185° (S) 1,982 6.5 -8.7°
Sets 15:50:21 0° 182° (S) 2,879 7.3 -9.1°
